Location: Peterborough
(44.3091°N, 78.3197°W)
Time: 20:26:56
(UTC-04:00)

A-11 Canister half - Pass Details

Date: 25 March 2023
Orbit: 1526 x 1682 km, 47.3° (Epoch: 06 June)

Event Time Altitude Azimuth Distance (km) Brightness Sun altitude
Rises 01:09:46 0° 292° (WNW) 4,800 11.9 -43.9°
Reaches altitude 10° 01:13:35 10° 281° (W) 3,786 11.1 -44.0°
Enters shadow 01:14:54 14° 275° (W) 3,483 10.9 -44.0°
